Location: Mahannah Oil Field
(37.4664°N, 96.6003°W)
Time: 13:29:36
(UTC+00:00)

Transit 2A Rocket - Pass Details

Date: 29 January 2021
Orbit: 594 x 909 km, 66.7° (Epoch: 24 February)

Event Time Altitude Azimuth Distance (km) Brightness Sun altitude
Rises 02:52:33 0° 328° (NNW) 2,867 8.4 -37.0°
Enters shadow 02:53:57 - 326° (NW) 2,304 7.9 -37.2°
Reaches altitude 10° 02:54:51 10° 324° (NW) 1,942 - -37.4°
Maximum altitude 02:59:05 57° 245° (WSW) 698 - -38.2°
Drops below altitude 10° 03:03:18 10° 167° (SSE) 1,932 - -39.1°
Sets 03:05:35 0° 163° (SSE) 2,850 - -39.5°
